Location: Church Tower
(37.7144°N, 119.6316°W)
Time: 20:38:34
(UTC+00:00)

CZ-2C R/B - Pass Details

Date: 15 November 2025
Orbit: 664 x 773 km, 98.4° (Epoch: 08 December)

Event Time Altitude Azimuth Distance (km) Brightness Sun altitude
Rises 13:12:41 0° 356° (N) 3,227 5.6 -17.1°
Reaches altitude 10° 13:15:33 10° 339° (NNW) 2,309 4.7 -16.6°
Enters shadow 13:16:43 14° 328° (NNW) 2,020 4.3 -16.4°
